GW7318 Weather Reports


Display with metric or nautical units.
time (UTC)temp
F
wind
direction
speed
MPH
gust
MPH
rain 1hr
in
rain 24hr
in
rain mn
in
humidity
%
barometer
mb
20260502123805 63 126 7.0 12.0 0.00 0.19 0.00 69 1024.3
20260502123305 64 103 9.0 13.0 0.00 0.19 0.00 69 1024.0
20260502122306 63 89 9.0 14.0 0.00 0.19 0.00 70 1024.4
20260502121805 63 130 5.0 14.0 0.00 0.19 0.00 71 1024.0
20260502121304 63 109 5.0 12.0 0.00 0.19 0.00 73 1024.3
20260502120805 62 102 7.0 12.0 0.00 0.19 0.00 74 1024.4
20260502120305 62 118 7.0 10.0 0.00 0.19 0.00 74 1024.4
20260502115804 63 117 4.0 9.0 0.00 0.19 0.00 74 1024.4
20260502115306 63 148 4.0 8.0 0.00 0.19 0.00 72 1024.4
20260502114804 62 107 7.0 12.0 0.00 0.19 0.00 72 1024.4
20260502113804 63 131 6.0 9.0 0.00 0.19 0.00 73 1024.6
20260502113305 62 127 6.0 8.0 0.00 0.19 0.00 73 1024.7
20260502112804 62 83 8.0 13.0 0.00 0.19 0.00 74 1024.7
20260502112306 63 166 4.0 10.0 0.00 0.19 0.00 72 1024.7
20260502111804 63 106 6.0 12.0 0.00 0.19 0.00 72 1024.7
20260502111305 63 73 6.0 12.0 0.00 0.19 0.00 72 1024.7
20260502110805 63 82 8.0 12.0 0.00 0.19 0.00 72 1024.7
20260502110304 62 97 7.0 13.0 0.00 0.19 0.00 70 1025.1
20260502105804 62 117 9.0 14.0 0.00 0.19 0.00 70 1024.7
20260502105306 62 97 7.0 13.0 0.00 0.19 0.00 70 1024.9
20260502104304 62 141 6.0 9.0 0.00 0.19 0.00 74 1024.7
20260502103804 62 84 10.0 17.0 0.00 0.19 0.00 74 1024.8
20260502103305 62 104 5.0 9.0 0.00 0.19 0.00 75 1024.9
20260502102306 62 55 4.0 9.0 0.00 0.19 0.00 77 1025.1
20260502101804 62 115 6.0 12.0 0.00 0.19 0.00 77 1025.1
20260502101305 61 83 6.0 10.0 0.00 0.19 0.00 77 1025.1
20260502100805 61 97 7.0 10.0 0.00 0.19 0.00 77 1025.2
20260502100304 61 224 3.0 8.0 0.00 0.19 0.00 79 1025.1
20260502091305 59 109 4.0 8.0 0.00 0.19 0.00 83 1025.4
20260502090805 59 143 3.0 8.0 0.00 0.19 0.00 83 1025.4
20260502071304 56 88 4.0 10.0 0.00 0.19 0.00 92 1025.7
20260502070805 56 99 4.0 13.0 0.00 0.20 0.00 93 1025.7
20260502070305 56 73 9.0 13.0 0.00 0.20 0.00 92 1025.7
20260502065805 56 86 6.0 10.0 0.00 0.21 0.00 92 1025.7
20260502065306 56 105 6.0 10.0 0.00 0.21 0.00 92 1025.4
20260502064806 56 99 5.0 13.0 0.00 0.22 0.00 92 1025.4
20260502064305 56 87 5.0 13.0 0.00 0.22 0.00 92 1025.3
20260502063305 55 58 4.0 9.0 0.00 0.24 0.00 93 1025.4
20260502062805 55 72 3.0 8.0 0.00 0.24 0.00 93 1025.3
20260502062306 55 89 6.0 8.0 0.00 0.24 0.00 93 1025.4
20260502061805 55 69 6.0 9.0 0.00 0.24 0.00 93 1025.4
20260502061305 55 100 5.0 9.0 0.00 0.24 0.00 93 1025.3
20260502060804 55 84 5.0 10.0 0.00 0.24 0.00 93 1025.4
20260502055306 55 97 3.0 9.0 0.00 0.24 0.00 94 1025.4
20260502053804 55 70 7.0 10.0 0.00 0.24 0.00 94 1025.1
20260502053304 55 84 7.0 8.0 0.00 0.24 0.00 94 1025.3
20260502052804 55 74 4.0 7.0 0.00 0.24 0.00 94 1025.4
20260502052306 55 81 5.0 10.0 0.00 0.24 0.00 94 1025.1
20260502051305 55 108 5.0 8.0 0.00 0.24 0.00 93 1025.1
20260502050804 55 62 5.0 12.0 0.00 0.24 0.00 93 1025.1
20260502050304 55 81 7.0 12.0 0.00 0.24 0.00 92 1025.1
20260502045804 55 72 7.0 13.0 0.00 0.24 0.00 92 1025.1
20260502045306 55 69 6.0 9.0 0.00 0.24 0.00 92 1025.1
20260502044804 55 93 6.0 10.0 0.00 0.24 0.00 92 1025.0
20260502044304 55 69 7.0 10.0 0.00 0.24 0.00 93 1025.1
20260502043304 55 139 4.0 7.0 0.00 0.24 0.00 93 1025.4
20260502042804 55 99 4.0 8.0 0.00 0.24 0.00 93 1025.4
20260502042306 55 110 5.0 9.0 0.00 0.24 0.00 93 1025.4
20260502041805 55 97 3.0 8.0 0.00 0.24 0.00 93 1025.4
20260502041305 55 82 6.0 9.0 0.00 0.24 0.00 93 1025.4
20260502040805 55 80 5.0 13.0 0.00 0.24 0.00 94 1025.6
20260502040305 55 85 8.0 13.0 0.00 0.24 0.00 93 1025.4
20260502035805 55 132 6.0 10.0 0.00 0.24 0.00 94 1025.4
20260502035306 55 77 6.0 10.0 0.00 0.24 0.00 94 1025.4
20260502034305 55 82 5.0 9.0 0.00 0.24 0.00 94 1025.7
20260502033804 55 54 6.0 10.0 0.00 0.24 0.00 94 1025.4
20260502032306 55 122 7.0 13.0 0.00 0.24 0.00 94 1025.7
20260502031804 55 89 4.0 9.0 0.00 0.24 0.00 93 1025.7
20260502030805 55 99 5.0 10.0 0.00 0.24 0.00 93 1025.7
20260502025805 55 119 5.0 10.0 0.00 0.24 0.00 93 1025.7
20260502025306 55 89 4.0 8.0 0.00 0.24 0.00 93 1026.0